| time (UTC) | temp C | wind direction | speed KPH | gust KPH | rain 1hr cm | rain 24hr cm | rain mn cm | humidity % | barometer mb |
| 20260506112705 | 6 | 311 | 0.0 | 0.0 | 0.00 | 3.12 | 0.64 | 96 | 1009.0 |
| 20260506112204 | 6 | 311 | 0.0 | 1.6 | 0.00 | 3.12 | 0.64 | 96 | 1009.0 |
| 20260506111705 | 6 | 311 | 0.0 | 0.0 | 0.00 | 3.12 | 0.64 | 96 | 1008.9 |
| 20260506111204 | 6 | 311 | 1.6 | 4.8 | 0.00 | 3.12 | 0.64 | 96 | 1008.9 |
| 20260506110704 | 6 | 312 | 3.2 | 4.8 | 0.00 | 3.12 | 0.64 | 96 | 1008.5 |
| 20260506110205 | 6 | 328 | 1.6 | 3.2 | 0.00 | 3.12 | 0.64 | 96 | 1008.5 |
| 20260506105704 | 6 | 328 | 0.0 | 1.6 | 0.00 | 3.12 | 0.64 | 96 | 1008.5 |
| 20260506105205 | 6 | 328 | 1.6 | 4.8 | 0.00 | 3.12 | 0.64 | 96 | 1008.5 |
| 20260506104704 | 6 | 330 | 1.6 | 4.8 | 0.00 | 3.12 | 0.64 | 96 | 1008.4 |
| 20260506103704 | 6 | 324 | 3.2 | 9.7 | 0.00 | 3.12 | 0.64 | 96 | 1008.5 |
| 20260506103204 | 6 | 310 | 3.2 | 8.0 | 0.00 | 3.12 | 0.64 | 96 | 1008.5 |
| 20260506102204 | 6 | 320 | 1.6 | 9.7 | 0.03 | 3.12 | 0.64 | 96 | 1008.5 |
| 20260506101704 | 6 | 313 | 4.8 | 9.7 | 0.03 | 3.12 | 0.64 | 96 | 1008.5 |
| 20260506101204 | 6 | 313 | 1.6 | 4.8 | 0.05 | 3.12 | 0.64 | 96 | 1008.5 |
| 20260506100704 | 6 | 320 | 0.0 | 0.0 | 0.05 | 3.12 | 0.64 | 96 | 1008.5 |
| 20260506100204 | 6 | 320 | 0.0 | 0.0 | 0.05 | 3.12 | 0.64 | 96 | 1008.5 |
| 20260506095704 | 6 | 320 | 0.0 | 1.6 | 0.05 | 3.12 | 0.64 | 96 | 1008.5 |
| 20260506094704 | 6 | 320 | 0.0 | 1.6 | 0.05 | 3.12 | 0.64 | 96 | 1008.5 |
| 20260506094204 | 6 | 320 | 0.0 | 1.6 | 0.05 | 3.12 | 0.64 | 96 | 1008.5 |
| 20260506093705 | 6 | 320 | 0.0 | 0.0 | 0.08 | 3.12 | 0.64 | 96 | 1008.5 |
| 20260506093204 | 6 | 320 | 3.2 | 9.7 | 0.08 | 3.12 | 0.64 | 96 | 1008.5 |
| 20260506092704 | 6 | 313 | 4.8 | 9.7 | 0.05 | 3.10 | 0.61 | 96 | 1008.5 |
| 20260506091704 | 6 | 313 | 6.4 | 12.9 | 0.08 | 3.10 | 0.61 | 96 | 1008.5 |
| 20260506091204 | 6 | 315 | 8.0 | 12.9 | 0.08 | 3.07 | 0.58 | 96 | 1008.5 |
| 20260506085704 | 7 | 331 | 8.0 | 14.5 | 0.13 | 3.07 | 0.58 | 96 | 1008.4 |
| 20260506084704 | 7 | 315 | 9.7 | 16.1 | 0.18 | 3.07 | 0.58 | 96 | 1008.2 |
| 20260506084204 | 7 | 346 | 1.6 | 19.3 | 0.20 | 3.07 | 0.58 | 96 | 1008.0 |
| 20260506083705 | 7 | 318 | 3.2 | 14.5 | 0.20 | 3.05 | 0.56 | 96 | 1008.1 |
| 20260506083204 | 7 | 320 | 3.2 | 11.3 | 0.20 | 3.05 | 0.56 | 96 | 1008.1 |
| 20260506081704 | 7 | 310 | 0.0 | 1.6 | 0.23 | 3.02 | 0.53 | 96 | 1008.4 |
| 20260506081205 | 7 | 309 | 0.0 | 0.0 | 0.23 | 3.00 | 0.51 | 96 | 1008.4 |
| 20260506080704 | 7 | 309 | 0.0 | 1.6 | 0.20 | 2.97 | 0.48 | 96 | 1008.4 |
| 20260506080204 | 7 | 309 | 0.0 | 1.6 | 0.18 | 2.95 | 0.46 | 96 | 1008.2 |
| 20260506073205 | 7 | 313 | 0.0 | 0.0 | 0.10 | 2.87 | 0.36 | 96 | 1008.2 |
| 20260506072705 | 7 | 315 | 0.0 | 0.0 | 0.08 | 2.84 | 0.33 | 96 | 1008.2 |
| 20260506072204 | 7 | 337 | 0.0 | 0.0 | 0.08 | 2.84 | 0.33 | 96 | 1008.2 |
| 20260506071705 | 7 | 317 | 0.0 | 0.0 | 0.05 | 2.82 | 0.30 | 96 | 1008.2 |
| 20260506062204 | 7 | 328 | 0.0 | 0.0 | 0.08 | 2.77 | 0.25 | 95 | 1008.3 |
| 20260506061705 | 7 | 328 | 0.0 | 0.0 | 0.10 | 2.77 | 0.25 | 95 | 1008.3 |
| 20260506061205 | 7 | 328 | 0.0 | 0.0 | 0.08 | 2.74 | 0.23 | 95 | 1008.3 |
| 20260506060705 | 7 | 12 | 0.0 | 0.0 | 0.10 | 2.74 | 0.23 | 95 | 1008.6 |
| 20260506060204 | 7 | 13 | 0.0 | 0.0 | 0.10 | 2.74 | 0.23 | 95 | 1008.6 |
| 20260506051204 | 7 | 13 | 0.0 | 0.0 | 0.15 | 2.67 | 0.15 | 95 | 1008.8 |
| 20260506050704 | 7 | 13 | 0.0 | 0.0 | 0.13 | 2.64 | 0.13 | 95 | 1008.8 |
| 20260506050205 | 7 | 13 | 0.0 | 0.0 | 0.13 | 2.64 | 0.13 | 95 | 1008.8 |
| 20260506044704 | 7 | 13 | 0.0 | 0.0 | 0.10 | 2.59 | 0.08 | 95 | 1008.9 |
| 20260506043704 | 7 | 11 | 0.0 | 0.0 | 0.10 | 2.57 | 0.05 | 95 | 1008.9 |
| 20260506042705 | 7 | 11 | 0.0 | 1.6 | 0.10 | 2.54 | 0.03 | 95 | 1009.0 |
| 20260506042205 | 7 | 11 | 1.6 | 8.0 | 0.10 | 2.54 | 0.03 | 95 | 1009.0 |
| 20260506041704 | 8 | 20 | 0.0 | 4.8 | 0.13 | 2.54 | 0.03 | 95 | 1009.0 |
| 20260506041204 | 8 | 47 | 4.8 | 12.9 | 0.13 | 2.51 | 0.00 | 96 | 1009.5 |
| 20260506035705 | 8 | 323 | 0.0 | 1.6 | 0.18 | 2.49 | 2.49 | 96 | 1009.5 |
| 20260506034704 | 8 | 343 | 3.2 | 11.3 | 0.23 | 2.49 | 2.49 | 95 | 1009.5 |
| 20260506034205 | 8 | 321 | 1.6 | 11.3 | 0.25 | 2.46 | 2.46 | 95 | 1009.5 |
| 20260506033704 | 8 | 296 | 3.2 | 12.9 | 0.28 | 2.46 | 2.46 | 96 | 1009.5 |
| 20260506033204 | 8 | 316 | 8.0 | 14.5 | 0.30 | 2.46 | 2.46 | 96 | 1009.5 |
| 20260506032704 | 8 | 317 | 3.2 | 8.0 | 0.33 | 2.44 | 2.44 | 96 | 1009.5 |
| 20260506032205 | 8 | 318 | 3.2 | 11.3 | 0.36 | 2.44 | 2.44 | 95 | 1009.5 |
| 20260506031705 | 8 | 313 | 3.2 | 8.0 | 0.36 | 2.41 | 2.41 | 95 | 1009.5 |
| 20260506031204 | 8 | 311 | 4.8 | 9.7 | 0.38 | 2.39 | 2.39 | 96 | 1009.5 |
| 20260506025705 | 8 | 308 | 3.2 | 8.0 | 0.36 | 2.31 | 2.31 | 96 | 1009.6 |
| 20260506025205 | 8 | 312 | 3.2 | 4.8 | 0.36 | 2.29 | 2.29 | 96 | 1009.3 |
| 20260506024704 | 8 | 309 | 3.2 | 4.8 | 0.33 | 2.26 | 2.26 | 96 | 1009.3 |
| 20260506023704 | 8 | 13 | 0.0 | 1.6 | 0.33 | 2.18 | 2.18 | 95 | 1008.9 |
| 20260506023205 | 8 | 0 | 0.0 | 3.2 | 0.30 | 2.16 | 2.16 | 95 | 1008.9 |
| 20260506022704 | 8 | 351 | 0.0 | 1.6 | 0.28 | 2.11 | 2.11 | 95 | 1008.9 |
| 20260506021704 | 9 | 348 | 0.0 | 3.2 | 0.25 | 2.06 | 2.06 | 95 | 1008.9 |
| 20260506021204 | 8 | 13 | 0.0 | 3.2 | 0.20 | 2.01 | 2.01 | 95 | 1008.9 |
| 20260506020705 | 8 | 17 | 0.0 | 3.2 | 0.18 | 1.98 | 1.98 | 95 | 1008.9 |
| 20260506015705 | 9 | 42 | 0.0 | 3.2 | 0.15 | 1.96 | 1.96 | 95 | 1008.9 |
| 20260506015204 | 9 | 32 | 0.0 | 3.2 | 0.15 | 1.93 | 1.93 | 95 | 1008.9 |
| 20260506014704 | 9 | 30 | 0.0 | 0.0 | 0.15 | 1.93 | 1.93 | 95 | 1008.9 |
| 20260506014205 | 9 | 30 | 0.0 | 1.6 | 0.15 | 1.88 | 1.88 | 95 | 1008.9 |
| 20260506013704 | 9 | 31 | 0.0 | 1.6 | 0.13 | 1.85 | 1.85 | 95 | 1008.9 |
| 20260506013204 | 9 | 31 | 0.0 | 1.6 | 0.15 | 1.85 | 1.85 | 95 | 1008.9 |
| 20260506012705 | 9 | 31 | 0.0 | 3.2 | 0.15 | 1.83 | 1.83 | 95 | 1008.7 |
| 20260506012205 | 9 | 29 | 1.6 | 3.2 | 0.20 | 1.83 | 1.83 | 95 | 1008.7 |
| 20260506011704 | 9 | 32 | 0.0 | 0.0 | 0.20 | 1.80 | 1.80 | 95 | 1008.7 |
| 20260506010704 | 9 | 32 | 0.0 | 3.2 | 0.23 | 1.80 | 1.80 | 95 | 1008.6 |
| 20260506005704 | 9 | 304 | 0.0 | 0.0 | 0.25 | 1.80 | 1.80 | 95 | 1008.6 |
| 20260506005204 | 9 | 299 | 0.0 | 3.2 | 0.23 | 1.78 | 1.78 | 95 | 1008.6 |
| 20260506004204 | 9 | 22 | 0.0 | 0.0 | 0.18 | 1.73 | 1.73 | 95 | 1009.0 |
| 20260506003704 | 9 | 52 | 0.0 | 0.0 | 0.18 | 1.73 | 1.73 | 95 | 1008.6 |
| 20260506003204 | 9 | 4 | 0.0 | 0.0 | 0.15 | 1.70 | 1.70 | 95 | 1008.6 |
| 20260506002204 | 9 | 59 | 0.0 | 0.0 | 0.08 | 1.63 | 1.63 | 95 | 1008.1 |
| 20260506001704 | 9 | 60 | 0.0 | 0.0 | 0.05 | 1.60 | 1.60 | 95 | 1008.1 |
| 20260506001205 | 9 | 45 | 0.0 | 0.0 | 0.05 | 1.57 | 1.57 | 95 | 1008.2 |
| 20260506000704 | 9 | 89 | 0.0 | 0.0 | 0.05 | 1.57 | 1.57 | 95 | 1008.2 |
| 20260505235204 | 9 | 38 | 0.0 | 0.0 | 0.13 | 1.55 | 1.55 | 95 | 1008.3 |
| 20260505234705 | 9 | 34 | 0.0 | 0.0 | 0.18 | 1.55 | 1.55 | 95 | 1008.3 |
| 20260505234204 | 9 | 41 | 0.0 | 0.0 | 0.28 | 1.55 | 1.55 | 95 | 1008.3 |
| 20260505233205 | 9 | 36 | 0.0 | 0.0 | 0.33 | 1.55 | 1.55 | 95 | 1008.3 |
| 20260505231704 | 9 | 10 | 0.0 | 0.0 | 0.36 | 1.55 | 1.55 | 94 | 1008.6 |
| 20260505231204 | 9 | 350 | 0.0 | 0.0 | 0.36 | 1.52 | 1.52 | 94 | 1008.6 |
| 20260505230704 | 9 | 11 | 0.0 | 0.0 | 0.38 | 1.52 | 1.52 | 94 | 1008.9 |
| 20260505230204 | 9 | 321 | 0.0 | 0.0 | 0.38 | 1.50 | 1.50 | 94 | 1008.9 |
| 20260505225204 | 9 | 321 | 9.7 | 14.5 | 0.36 | 1.42 | 1.42 | 94 | 1008.9 |
| 20260505224705 | 9 | 319 | 4.8 | 12.9 | 0.36 | 1.37 | 1.37 | 94 | 1008.5 |
| 20260505224204 | 9 | 343 | 1.6 | 11.3 | 0.28 | 1.27 | 1.27 | 94 | 1008.5 |
| 20260505223705 | 9 | 10 | 1.6 | 9.7 | 0.28 | 1.24 | 1.24 | 94 | 1008.5 |
| 20260505223204 | 9 | 331 | 3.2 | 12.9 | 0.28 | 1.22 | 1.22 | 94 | 1008.6 |
| 20260505222704 | 10 | 347 | 4.8 | 12.9 | 0.30 | 1.22 | 1.22 | 93 | 1008.6 |
| 20260505222204 | 10 | 3 | 3.2 | 12.9 | 0.33 | 1.22 | 1.22 | 93 | 1008.6 |
| 20260505221705 | 10 | 5 | 1.6 | 9.7 | 0.33 | 1.19 | 1.19 | 93 | 1008.6 |
| 20260505220704 | 10 | 32 | 4.8 | 11.3 | 0.43 | 1.14 | 1.14 | 93 | 1008.3 |
| 20260505220205 | 10 | 53 | 0.0 | 4.8 | 0.46 | 1.12 | 1.12 | 93 | 1008.1 |
| 20260505215204 | 10 | 324 | 0.0 | 3.2 | 0.51 | 1.07 | 1.07 | 93 | 1008.1 |
| 20260505213704 | 11 | 14 | 0.0 | 3.2 | 0.53 | 0.97 | 0.97 | 93 | 1008.2 |
| 20260505212205 | 11 | 340 | 3.2 | 9.7 | 0.58 | 0.89 | 0.89 | 92 | 1007.8 |
| 20260505211704 | 11 | 300 | 4.8 | 11.3 | 0.58 | 0.86 | 0.86 | 91 | 1007.8 |
| 20260505211204 | 11 | 8 | 4.8 | 14.5 | 0.66 | 0.84 | 0.84 | 91 | 1007.8 |
| 20260505210704 | 12 | 347 | 4.8 | 14.5 | 0.56 | 0.71 | 0.71 | 90 | 1007.8 |
| 20260505210204 | 13 | 332 | 8.0 | 20.9 | 0.53 | 0.66 | 0.66 | 93 | 1007.8 |
| 20260505205205 | 13 | 279 | 1.6 | 8.0 | 0.46 | 0.56 | 0.56 | 93 | 1007.8 |
| 20260505204704 | 13 | 293 | 0.0 | 0.0 | 0.41 | 0.51 | 0.51 | 93 | 1007.9 |
| 20260505203704 | 13 | 266 | 0.0 | 1.6 | 0.38 | 0.43 | 0.43 | 93 | 1007.8 |
| 20260505203204 | 13 | 285 | 8.0 | 11.3 | 0.33 | 0.38 | 0.38 | 92 | 1007.8 |
| 20260505202704 | 13 | 303 | 3.2 | 11.3 | 0.28 | 0.33 | 0.33 | 92 | 1007.6 |
| 20260505202204 | 14 | 291 | 3.2 | 8.0 | 0.28 | 0.30 | 0.30 | 92 | 1007.6 |
| 20260505201704 | 14 | 269 | 1.6 | 9.7 | 0.25 | 0.28 | 0.28 | 92 | 1007.9 |
| 20260505200204 | 14 | 278 | 3.2 | 8.0 | 0.10 | 0.13 | 0.13 | 90 | 1007.9 |
| 20260505195704 | 14 | 275 | 3.2 | 9.7 | 0.10 | 0.13 | 0.13 | 89 | 1007.9 |
| 20260505194205 | 15 | 275 | 6.4 | 14.5 | 0.05 | 0.08 | 0.08 | 88 | 1007.9 |
| 20260505193204 | 15 | 287 | 11.3 | 19.3 | 0.03 | 0.05 | 0.05 | 86 | 1007.9 |
| 20260505192704 | 15 | 288 | 11.3 | 19.3 | 0.03 | 0.05 | 0.05 | 85 | 1007.9 |
| 20260505192205 | 15 | 288 | 11.3 | 20.9 | 0.00 | 0.13 | 0.03 | 84 | 1007.9 |
| 20260505190705 | 16 | 284 | 11.3 | 14.5 | 0.00 | 0.25 | 0.03 | 80 | 1007.9 |
| 20260505190205 | 16 | 283 | 8.0 | 19.3 | 0.00 | 0.25 | 0.03 | 79 | 1007.9 |
| 20260505185205 | 17 | 278 | 8.0 | 14.5 | 0.00 | 0.28 | 0.03 | 77 | 1007.9 |
| 20260505184704 | 17 | 288 | 9.7 | 19.3 | 0.00 | 0.28 | 0.03 | 76 | 1007.9 |
| 20260505184205 | 17 | 233 | 3.2 | 14.5 | 0.00 | 0.28 | 0.03 | 76 | 1007.9 |
| 20260505183705 | 17 | 236 | 8.0 | 19.3 | 0.00 | 0.28 | 0.03 | 74 | 1007.9 |
| 20260505183204 | 17 | 282 | 4.8 | 16.1 | 0.00 | 0.28 | 0.03 | 74 | 1007.9 |
| 20260505182704 | 17 | 251 | 9.7 | 16.1 | 0.00 | 0.28 | 0.03 | 74 | 1008.0 |
| 20260505181705 | 17 | 265 | 9.7 | 20.9 | 0.00 | 0.28 | 0.03 | 73 | 1007.8 |
| 20260505180705 | 17 | 251 | 9.7 | 19.3 | 0.00 | 0.28 | 0.03 | 73 | 1007.8 |
| 20260505180205 | 17 | 276 | 4.8 | 16.1 | 0.00 | 0.28 | 0.03 | 74 | 1007.8 |
| 20260505175704 | 17 | 261 | 4.8 | 19.3 | 0.00 | 0.28 | 0.03 | 73 | 1007.8 |
| 20260505175205 | 17 | 263 | 8.0 | 22.5 | 0.00 | 0.28 | 0.03 | 73 | 1007.8 |
| 20260505174704 | 17 | 271 | 14.5 | 19.3 | 0.00 | 0.28 | 0.03 | 73 | 1007.8 |
| 20260505174204 | 17 | 270 | 11.3 | 29.0 | 0.00 | 0.28 | 0.03 | 73 | 1007.8 |
| 20260505173704 | 17 | 273 | 14.5 | 32.2 | 0.00 | 0.28 | 0.03 | 71 | 1007.8 |
| 20260505173205 | 17 | 272 | 11.3 | 24.1 | 0.00 | 0.28 | 0.03 | 72 | 1007.6 |
| 20260505172704 | 18 | 269 | 11.3 | 19.3 | 0.00 | 0.28 | 0.03 | 71 | 1007.6 |
| 20260505172205 | 18 | 251 | 11.3 | 33.8 | 0.00 | 0.28 | 0.03 | 70 | 1007.7 |
| 20260505171705 | 18 | 276 | 6.4 | 14.5 | 0.00 | 0.28 | 0.03 | 70 | 1007.6 |
| 20260505171204 | 18 | 266 | 11.3 | 29.0 | 0.00 | 0.28 | 0.03 | 70 | 1007.6 |
| 20260505170704 | 18 | 265 | 12.9 | 32.2 | 0.00 | 0.28 | 0.03 | 70 | 1007.5 |
| 20260505170205 | 18 | 275 | 8.0 | 19.3 | 0.00 | 0.28 | 0.03 | 70 | 1007.5 |
| 20260505165704 | 18 | 232 | 11.3 | 24.1 | 0.00 | 0.28 | 0.03 | 69 | 1007.5 |
| 20260505165205 | 18 | 253 | 14.5 | 29.0 | 0.00 | 0.28 | 0.03 | 68 | 1007.5 |
| 20260505164704 | 18 | 231 | 11.3 | 25.7 | 0.00 | 0.28 | 0.03 | 68 | 1007.5 |
| 20260505163705 | 18 | 239 | 8.0 | 32.2 | 0.00 | 0.28 | 0.03 | 67 | 1007.5 |
| 20260505162704 | 18 | 276 | 8.0 | 19.3 | 0.00 | 0.28 | 0.03 | 67 | 1007.5 |
| 20260505161705 | 18 | 282 | 6.4 | 19.3 | 0.00 | 0.28 | 0.03 | 67 | 1007.5 |
| 20260505161205 | 19 | 271 | 9.7 | 19.3 | 0.00 | 0.28 | 0.03 | 67 | 1007.5 |
| 20260505160705 | 19 | 233 | 14.5 | 29.0 | 0.00 | 0.28 | 0.03 | 64 | 1007.4 |
| 20260505153205 | 20 | 233 | 11.3 | 41.8 | 0.00 | 0.28 | 0.03 | 64 | 1006.4 |
| 20260505152704 | 20 | 210 | 8.0 | 19.3 | 0.00 | 0.28 | 0.03 | 65 | 1006.4 |
| 20260505152204 | 19 | 264 | 8.0 | 19.3 | 0.00 | 0.28 | 0.03 | 64 | 1006.4 |
| 20260505151704 | 20 | 256 | 12.9 | 25.7 | 0.00 | 0.28 | 0.03 | 65 | 1006.4 |
| 20260505150704 | 19 | 244 | 17.7 | 35.4 | 0.00 | 0.28 | 0.03 | 63 | 1006.5 |
| 20260505150205 | 19 | 250 | 14.5 | 22.5 | 0.00 | 0.28 | 0.03 | 65 | 1006.5 |
| 20260505140204 | 18 | 243 | 11.3 | 24.1 | 0.00 | 0.28 | 0.03 | 70 | 1006.0 |
| 20260505130205 | 16 | 225 | 9.7 | 19.3 | 0.00 | 0.28 | 0.03 | 76 | 1006.1 |
| 20260505124704 | 16 | 229 | 8.0 | 22.5 | 0.00 | 0.28 | 0.03 | 75 | 1006.1 |
| 20260505124204 | 16 | 193 | 6.4 | 20.9 | 0.00 | 0.28 | 0.03 | 75 | 1006.1 |
| 20260505122205 | 16 | 211 | 9.7 | 29.0 | 0.00 | 0.28 | 0.03 | 74 | 1005.2 |
| 20260505121705 | 16 | 229 | 11.3 | 20.9 | 0.00 | 0.28 | 0.03 | 74 | 1005.2 |
| 20260505121204 | 16 | 241 | 4.8 | 14.5 | 0.00 | 0.28 | 0.03 | 74 | 1005.2 |
| 20260505120705 | 16 | 221 | 3.2 | 11.3 | 0.00 | 0.28 | 0.03 | 74 | 1005.2 |
| 20260505120204 | 16 | 211 | 6.4 | 12.9 | 0.00 | 0.28 | 0.03 | 74 | 1005.2 |
| 20260505115705 | 16 | 228 | 3.2 | 12.9 | 0.00 | 0.28 | 0.03 | 74 | 1004.9 |
| 20260505115204 | 16 | 221 | 3.2 | 19.3 | 0.00 | 0.28 | 0.03 | 74 | 1004.9 |
| 20260505114205 | 16 | 241 | 4.8 | 9.7 | 0.00 | 0.28 | 0.03 | 73 | 1004.4 |
| 20260505113204 | 16 | 218 | 4.8 | 19.3 | 0.00 | 0.28 | 0.03 | 72 | 1004.4 |